Regional Weather Roundup
Issued by NWS

Home | Current Version | Previous Version | Graphics & Text | Print | Product List | Glossary On
Versions: 1 2 3 4 5 6 7 8 9 10 11 12 13 14 15 16 17 18 19 20 21 22 23 24 25 26 27 28 29 30 31 32 33 34 35 36 37 38 39 40 41 42 43 44 45 46 47 48 49 50
000
ASUS43 KIND 200409
RWRIN

WEATHER ROUNDUP FOR INDIANA
NATIONAL WEATHER SERVICE INDIANAPOLIS IN
1200 AM EDT SAT SEP 20 2014

NOTE: "FAIR" INDICATES FEW OR NO CLOUDS BELOW 12,000 FEET WITH NO
SIGNIFICANT WEATHER AND/OR OBSTRUCTIONS TO VISIBILITY.

* - STATION DOES NOT REPORT WEATHER SUCH AS PRECIPITATION OR FOG.

+ - STATION NOT QUALITY CONTROLLED BY THE NATIONAL WEATHER SERVICE.
    USE DATA WITH CAUTION...ESPECIALLY DEWPOINT AND RELATIVE
    HUMIDITY OBSERVATIONS.

INZ001>003-010>013-019-020-200500-
NORTHWEST INDIANA

CITY           SKY/WX    TMP DP  RH WIND       PRES   REMARKS
GARY /AIRPORT/ CLEAR     65  49  55 S9        29.98F
KNOX *+        CLEAR     55  47  74 S7        30.02F
LA PORTE +     CLEAR     57  47  69 S7        30.02F
MICHIGAN CITY+ CLEAR     61  45  55 S8        30.00F
MONTICELLO +   CLEAR     55  49  81 S3        30.04S
RENSSELAER +   CLEAR     55  52  88 CALM      30.03F
VALPARAISO     CLEAR     58  48  69 S7        30.02F

$$

LMZ046-743>745-200500-
SOUTHERN LAKE MICHIGAN

STATION/POSITION TIME  TEMP WIND        PRES
                       AIR  DIR/SP/G
                 (UTC) (F)  (DEG/KT/KT) (MB)
MICHIGAN CITY    0400   64  150/ 15/ 20   N/A

$$

INZ004-005-014>016-021>024-200500-
NORTH CENTRAL INDIANA

CITY           SKY/WX    TMP DP  RH WIND       PRES   REMARKS
GOSHEN         PTCLDY    56  48  74 S7        30.04F
LOGANSPORT +   CLEAR     50  46  87 CALM      30.06F
PERU/GRISSOM   CLEAR     54  52  94 CALM      30.06S
ROCHESTER +    PTCLDY    61  50  67 S3        30.05F
SOUTH BEND     CLEAR     60  47  61 S10       30.03F
WARSAW +       PTCLDY    52  48  87 CALM      30.05F

$$

INZ006>009-017-018-025>027-200500-
NORTHEAST INDIANA

CITY           SKY/WX    TMP DP  RH WIND       PRES   REMARKS
ANGOLA *+      CLEAR     54  46  76 CALM      30.05F
AUBURN +       PTCLDY    52  46  82 CALM      30.06F
FORT WAYNE     PTCLDY    52  47  83 S3        30.07F
HUNTINGTON +   PTCLDY    53  48  84 CALM      30.05F

$$

INZ028-029-035-036-043>045-051>053-200500-
WEST CENTRAL INDIANA

CITY           SKY/WX    TMP DP  RH WIND       PRES   REMARKS
GREENCASTLE +  CLEAR     54  52  94 CALM      30.06F
LAFAYETTE      CLEAR     52  49  89 CALM      30.05F
TERRE HAUTE    CLEAR     54  51  90 CALM      30.05S

$$

INZ030>032-037>040-046>048-054>057-064-065-200500-
CENTRAL INDIANA

CITY           SKY/WX    TMP DP  RH WIND       PRES   REMARKS
CP ATTERBURY + PTCLDY    52  52 100 CALM      30.08S
FRANKFORT +    CLEAR    N/A N/A N/A CALM      30.07S
GREENWOOD *+   PTCLDY    57  52  82 SE3       30.08
INDIANAPOLIS   PTCLDY    60  50  69 SE5       30.06F
-EAGLE CREEK   CLEAR     56  51  84 CALM      30.06F
KOKOMO *+      CLEAR     54  46  76 S7        30.06F
MARION +       CLEAR     53  47  81 S3        30.07F
MT COMFORT *+  PTCLDY    52  48  87 CALM      30.07F
SHELBYVILLE    PTCLDY    56  50  80 SE5       30.07S
ZIONSVILLE +   CLEAR     51  48  89 CALM      30.07F

$$

INZ033-034-041-042-049-050-058-059-200500-
EAST CENTRAL INDIANA

CITY           SKY/WX    TMP DP  RH WIND       PRES   REMARKS
MUNCIE         PTCLDY    59  49  69 S5        30.07F

$$

INZ060-061-067>069-081>083-085>088-200500-
SOUTHWEST INDIANA

CITY           SKY/WX    TMP DP  RH WIND       PRES   REMARKS
EVANSVILLE     CLEAR     61  57  87 CALM      30.06R
WASHINGTON +   CLEAR     55  54  98 CALM      30.05S

$$

INZ062-063-066-070>080-084-089>092-200500-
SOUTH CENTRAL AND SOUTHEAST INDIANA

CITY           SKY/WX    TMP DP  RH WIND       PRES   REMARKS
BEDFORD +      PTCLDY    57  52  82 CALM      30.07
BLOOMINGTON    CLEAR     53  51  93 CALM      30.07S FOG

$$



USA.gov is the U.S. government's official web portal to all federal, state and local government web resources and services.